Location: Newark
(26.8229°N, 81.7649°W)
Time: 02:02:19
(UTC+00:00)

N. Korean satellite - Pass Details

Date: 25 January 2020
Orbit: 456 x 505 km, 97.2° (Epoch: 25 February)

Event Time Altitude Azimuth Distance (km) Brightness Sun altitude
Rises 10:31:01 0° 27° (NNE) 2,547 10.4 -23.2°
Reaches altitude 10° 10:33:20 10° 41° (NE) 1,673 9.6 -22.7°
Maximum altitude 10:36:21 25° 98° (E) 1,021 8.9 -22.1°
Drops below altitude 10° 10:39:24 10° 155° (SSE) 1,686 9.8 -21.4°
Sets 10:41:44 0° 168° (SSE) 2,572 10.5 -20.9°
